Location: Unspecified
(48.2082°N, 0.0000°E)
Time: 04:16:53
(UTC+00:00)

Altair - Pass Details

Date: 19 June 2019
Orbit: 1501 x 1683 km, 47.2° (Epoch: 12 October)

Event Time Altitude Azimuth Distance (km) Brightness Sun altitude
Rises 19:41:11 0° 211° (SSW) 4,694 10.0 2.2°
Reaches altitude 10° 19:44:27 10° 204° (SSW) 3,737 9.5 1.8°
Maximum altitude 19:52:59 39° 140° (SE) 2,229 8.0 0.6°
Drops below altitude 10° 20:01:50 10° 76° (ENE) 3,880 9.3 -0.6°
Sets 20:05:15 0° 70° (ENE) 4,891 9.8 -1.0°
